Regional Weather Roundup
Issued by NWS Wakefield, VA

Home | Current Version | Previous Version | Graphics & Text | Print | Product List | Glossary On
Versions: 1 2 3 4 5 6 7 8 9 10 11 12 13 14 15 16 17 18 19 20 21 22 23 24 25 26 27 28 29 30 31 32 33 34 35 36 37 38 39 40 41 42 43 44 45 46 47 48 49 50
000
ASUS41 KAKQ 291915
RWRAKQ

REGIONAL WEATHER ROUNDUP
NATIONAL WEATHER SERVICE WAKEFIELD VA
300 PM EDT MON MAY 29 2017

Note: "fair" indicates few or no clouds below 12,000 feet with no
significant weather and/or obstructions to visibility. * = Denotes
station may not report precipitation (e.g., rain,snow,etc.),
thunder or fog.

VAZ042-051-052>054-056-292000-
NORTHERN VIRGINIA

CITY           SKY/WX    TMP DP  RH WIND       PRES   REMARKS
WASH NATIONAL  PTSUNNY   81  65  58 VRB7      29.92S
DULLES         PTSUNNY   82  54  37 W15       29.93R
FORT BELVOIR   SUNNY     83  60  44 W9        29.92S
QUANTICO       MOSUNNY   81  70  69 E6        29.93S
FREDERICKSBRG* SUNNY     81  68  64 CALM      29.92S
STAFFORD*      MOSUNNY   82  65  57 SW5       29.97R
WARRENTON      MOSUNNY   85  54  34 NW9       29.92S
CULPEPER*      PTSUNNY   83  60  45 NW8       29.93S
MANASSAS*      MOSUNNY   84  56  38 NW16      29.93S
LEESBURG*      CLOUDY    82  61  47 W13G20    29.95R
WINCHESTER     MOSUNNY   77  54  44 W9        29.95S
FRONT ROYAL*   MOCLDY    79  55  44 NW7       29.94S
LURAY*         CLOUDY    81  52  36 W13G18    29.96S
$$

VAZ048-049-060>072-079>083-292000-
CENTRAL AND SOUTH CENTRAL VIRGINIA

CITY           SKY/WX    TMP DP  RH WIND       PRES   REMARKS
RICHMOND       MOSUNNY   85  61  44 N6        29.93S
CHESTERFIELD*  NOT AVBL
PETERSBURG*    MOSUNNY   83  62  47 CALM      29.94S
HANOVER        MOSUNNY   85  61  44 VRB6      29.94S
TAPPAHANNOCK*  MOSUNNY   84  64  51 CALM      29.94S
QUINTON*       MOCLDY   N/A N/A N/A NW3       29.93S
CHARLOTTSVILLE MOSUNNY   83  61  47 SW6       29.92F
GORDONSVILLE*  MOCLDY    82  64  55 S5        29.92S
ORANGE*        MOSUNNY   81  64  57 SW8       29.93S
LOUISA*          N/A    N/A N/A N/A MISG      29.92F
BUMPASS*       FAIR      83  65  53 W3        29.92F
FARMVILLE*     MOSUNNY   85  55  35 SW5       29.93S
CREWE*         FAIR      84  56  38 NW5       29.94F
FORT PICKETT*  FAIR      84  56  37 SW9       29.95S
CHASE CITY*    FAIR      84  60  44 W3        29.95F
CLARKSVILLE*   MOCLDY    82  63  51 W5        29.95S
SOUTH HILL*    PTSUNNY   84  66  53 NW6       30.01S
LAWRENCEVILLE* MOCLDY    85  64  50 W5        29.94F
EMPORIA*       MOSUNNY   84  63  48 SW8       29.94F
$$

VAZ088>098-292000-
SOUTHEAST VIRGINIA

CITY           SKY/WX    TMP DP  RH WIND       PRES   REMARKS
NORFOLK        SUNNY     80  68  66 NE7       29.94R
VIRGINIA BEACH CLOUDY    84  66  54 NW12      29.93R
NORFOLK NAVAL  NOT AVBL
WEST POINT*    SUNNY     83  63  50 W5        29.94F
SALUDA*        FAIR      73  70  88 E9        29.94S
NEWPORT NEWS   SUNNY     85  68  56 VRB7      29.93S
LANGLEY AFB    CLOUDY    82  72  72 E10       29.93R
FORT EUSTIS    SUNNY     87  67  52 NW7       29.92R
WILLIAMSBURG*  SUNNY     90  68  48 CALM      29.94S
HR EXEC AP*    FAIR      84  68  58 NW5       29.91R
FRANKLIN*      MOSUNNY   84  64  50 NW9       29.94S
US460-WAKEFLD  MOSUNNY   84  65  52 NW5       29.93S
$$

VAZ020-022-025-037-045-292000-
WEST CENTRAL AND SOUTHWEST VIRGINIA

CITY           SKY/WX    TMP DP  RH WIND       PRES   REMARKS
STAUNTON*      PTSUNNY   79  53  39 NW10      29.98R
WAYNESBORO*    PTCLDY    78  58  50 W6        29.97S
HOT SPRINGS VA CLOUDY    68  32  26 W6G17     30.11R
LYNCHBURG      SUNNY     82  57  42 W8        29.98R
DANVILLE       MOSUNNY   83  63  50 VRB6      29.96S
SOUTH BOSTON*  FAIR      84  59  42 NW5       29.95F
MARTINSVILLE   CLOUDY    83  59  43 W3        30.01R
ROANOKE        CLOUDY    80  57  45 NW12      30.01R
BLACKSBURG     MOSUNNY   78  57  48 NW9       30.07F
DUBLIN*        MOSUNNY   79  47  32 W9        30.07S
MARION*        CLOUDY    72  60  66 CALM      30.10S
HILLSVILLE*    CLOUDY    75  50  41 NW8       30.06F
RICHLANDS*     MOCLDY    69  60  71 W3        30.10S
WISE*          CLOUDY    70  59  68 CALM      30.11S
ABINGDON*      CLOUDY    74  61  64 W10       30.07S
$$

MDZ021>025-VAZ099-100-292000-
SOUTHERN MARYLAND AND THE DELMARVA PENINSULA

CITY           SKY/WX    TMP DP  RH WIND       PRES   REMARKS
PATUXENT RIVER SUNNY     73  69  87 SE10      29.94S
BAY BRIDGE APT SUNNY     75  64  69 E7        29.94S
LEONARDTOWN    MOSUNNY   79  64  61 CALM      29.95S
DOVER          CLOUDY    63  63 100 E8        29.97S
GEORGETOWN     CLOUDY    66  61  84 NE6       29.99R
EASTON         NOT AVBL
CAMBRIDGE      SUNNY     75  63  64 VRB5      29.95S
SALISBURY      MOSUNNY   75  65  70 NW5       29.96R
OCEAN CITY     CLOUDY    66  60  81 NE9       29.99R
WALLOPS ISLAND MOSUNNY   77  66  68 N8        29.97R
ACCOMACK*      CLOUDY    78  67  71 NW5       29.96S
$$

NCZ012>017-030>032-292000-
NORTH CENTRAL AND EASTERN NORTH CAROLINA

CITY           SKY/WX    TMP DP  RH WIND       PRES   REMARKS
ROANOKE RAPIDS FAIR      86  63  45 W8        29.94F
RALEIGH        PTSUNNY   85  63  47 W5        29.95F
ELIZABETH CITY CLOUDY    86  67  52 NW6       29.93R
AHOSKIE*       NOT AVBL
EDENTON*       CLOUDY    88  65  47 CALM      29.93F
CURRITUCK*     CLOUDY    82  69  65 NE10      29.95R
KILL DEVIL HLS CLOUDY    78  68  71 CALM      29.94R
MANTEO         CLOUDY    84  67  57 NW7       29.95R
CAPE HATTERAS  SUNNY     84  72  67 VRB6      29.95F
TARBORO*       NOT AVBL
GOLDSBORO      SUNNY     88  64  43 W8        29.93S
WASHINGTON     SUNNY     87  65  46 NW7       29.93F
GREENVILLE     MOSUNNY   88  64  45 N7        29.95F
NEW BERN       SUNNY     89  64  43 W5        29.94F
WILMINGTON     SUNNY     89  64  43 S7        29.95F
$$

VAZ048-292000-
ELSEWHERE

CITY           SKY/WX    TMP DP  RH WIND       PRES   REMARKS
HARRISBURG PA  CLOUDY    71  64  78 SE8       29.93R
BALTIMORE      PTSUNNY   75  67  76 E12       29.93R
ANNAPOLIS      MOSUNNY   72  68  87 SE9       29.95R
ANDREWS AFB    MOSUNNY   81  62  52 NW6G17    29.92S
PHILADELPHIA   CLOUDY    63  58  83 E7        29.98S
HENDERSON NC   MOSUNNY   81  62  51 NW6       29.96S
GREENSBORO     PTSUNNY   84  63  49 W9        29.98S
ROCKY MOUNT    SUNNY     88  64  44 W9        29.94S
$$

VAZ100-292000-
MARINE

STATION/POSITION TIME  TEMP    WIND        PRES    WAVE   SWELL
                       AIR SEA DIR/SP/G            HT/PER HT/PER
                 (UTC) (F)     (DEG/KT/KT) (MB)    (FT/S) (FT/S)
CAPE MAY NJ      1836   62 63   50/  5/  8 1015.0R
LEWES DE         1836   61 64   80/  6/  7 1015.2R
15NM E FENWICK I 1850   59 60  360/  6/  6 1015.9R   4/ 8   3/ 8
WACHAPREAGUE VA  1836   80 72  270/  2/  8 1013.8R
THOMAS POINT MD  1900   69 67   90/  6/  6   N/A
GOOSES REEF MD   1900   70 67   80/  6/  8 1014.5    0
COVE POINT MD    1836   68     180/  8/  9 1014.6S
SOLOMONS ISLAND  1754   67 69   90/ 10/ 11   N/A
BISHOPS HEAD MD  1836   71 74  160/  2/  3 1014.7F
PINEY POINT MD   1836           CALM  /  1   N/A
POTOMAC MD       1900   69 70  120/  8/  8 1013.0    0
CAMBRIDGE MD     1836   74 71                N/A
LEWISETTA VA     1836   70 71  120/  8/  9 1013.9R
RAPPAHANNOCK LGT 1836           30/ 11/ 12 1014.7F
STINGRAY PT      1900   70 71   90/  8/ 10 1014.1    1
YORK RVR RNG VA  1836   71      60/ 13/ 14 1013.1S
YORKTOWN VA      1836   79 71  320/  7/  8 1013.3R
JAMESTOWN VA     1900   80 76  260/  4/  6   N/A     0
DOMINION TERM VA 1836   79     320/  5/  6 1013.6R
KIPTOPEKE VA     1836      69  340/  7/  8   N/A
CHES BAY BRIDGE  1836   72 68   80/  6/  6 1013.6R
CAPE HENRY VA    1836   74      40/  3/  5   N/A
WILLOUBY STN VA  1836   72      80/  7/  8 1013.5R
S CRANEY ISL VA  1836   77      30/  4/  5 1013.3R
CAPE HENRY BUOY  1842      68                N/A     2/ 7
1ST LANDING BUOY 1900   72 71              1013.9    1/ 4
CAPE CHARLES BUO 1851      70                N/A     2/ 7
64NM E OF VA BCH 1850   67 66  330/  8/  8 1014.7R   4/ 6   3/ 6
DUCK PIER NC     1836   74 70  120/  7/  8 1013.5R
44100 DUCK FRF   1835      69                N/A     3/ 6
44056 DUCK FRF   1830      72                N/A     2/ 7
OREGON INLET NC  1836   80 68  100/  5/  7 1013.9R
HATTERAS NC      1836   82 76  210/  2/  7 1014.0F
DIAMOND SHLS NC  1850   77 77  240/  6/  6 1014.1F   3/ 6   2/ 6
CAPE LOOKOUT NC  1900   79     210/ 12/ 15 1013.8F
$$



USA.gov is the U.S. government's official web portal to all federal, state and local government web resources and services.